Temperature
12 12 12 13 17 18 19 19 18 17 18 17 17 18 20 21 21 20 15 15 16 16 16 16 16 16 16 17 17 17 17 17 17 17 17 17 17 17 17 17 16 16 16 16 16 16 16 16 16
11 12 12 15 17 19 19 18 17 17 17 15 16 17 18 19 17 16 15 15 16 16 16 16 16 16 16 16 16 16 16 16 16 17 17 17 17 16 16 16 16 16 16 16 16 16 16 16 16
11 12 13 16 17 19 19 17 17 16 15 15 16 17 17 18 16 15 14 15 15 15 15 16 16 16 16 16 16 16 16 16 16 16 17 17 16 16 16 16 16 16 16 16 16 16 16 16 16
11 12 13 15 16 17 17 16 15 16 15 15 16 17 16 14 14 14 14 15 15 15 15 15 15 16 16 16 16 16 16 16 16 16 16 16 16 16 16 16 16 16 16 16 16 16 16 16 16
11 13 15 15 16 15 15 14 14 15 16 15 15 16 16 14 14 14 14 15 15 15 15 15 15 15 15 15 16 16 16 16 16 16 16 16 16 16 16 16 16 16 16 16 16 16 16 16 16
12 14 15 15 16 14 14 13 13 15 15 14 14 15 15 14 14 14 14 14 14 15 15 15 15 15 15 15 15 15 15 16 16 16 16 16 16 16 16 16 16 16 16 16 16 16 16 16 16
12 14 15 15 15 14 14 13 13 14 15 14 14 15 15 13 13 13 14 14 14 14 15 15 15 15 15 15 15 15 15 15 16 16 16 16 16 16 16 16 16 16 16 16 16 16 16 16 16
11 13 13 13 14 14 13 12 12 13 14 13 12 14 15 13 12 13 13 13 14 14 14 15 15 15 15 15 15 15 15 15 15 15 16 16 15 16 15 15 16 15 15 15 15 15 15 15 15
10 12 13 13 13 13 12 12 12 11 11 11 12 12 12 12 12 12 12 13 13 14 14 14 14 15 15 15 15 15 15 15 15 15 15 15 15 15 15 15 15 15 15 15 15 15 15 15 15
10 12 13 12 12 12 11 11 11 11 12 12 12 11 11 11 11 11 11 12 12 13 14 14 14 14 14 14 14 15 15 15 15 15 15 15 15 15 15 15 15 15 15 15 15 15 15 15 15
10 11 11 10 10 10 10 11 10 11 12 12 12 11 11 10 10 11 11 11 11 12 13 13 14 14 14 14 14 14 14 14 14 14 14 15 15 15 15 15 15 15 15 14 14 14 14 14 14
10 10 9 10 9 9 10 10 10 10 11 11 10 10 10 10 10 10 10 11 11 11 12 13 13 13 14 14 14 14 14 14 14 14 14 14 15 15 15 15 15 15 14 14 14 14 14 14 14
9 9 9 9 8 9 9 9 10 10 10 9 9 9 9 9 9 10 10 10 10 11 11 12 12 13 13 13 13 13 13 14 14 14 14 14 14 14 14 14 14 14 14 14 14 14 14 14 14
9 9 9 9 9 9 9 10 10 10 10 9 9 9 9 9 9 9 9 10 10 10 11 11 12 12 12 13 13 13 13 13 13 14 14 14 14 14 14 14 14 14 14 14 14 14 14 14 14
8 9 10 10 9 9 9 10 11 10 9 9 9 9 9 9 9 9 9 9 9 10 10 11 11 11 12 12 12 12 13 13 13 13 14 14 14 14 14 14 14 14 14 14 14 14 14 13 14
9 9 10 10 10 9 9 11 12 10 9 9 9 9 9 9 8 8 8 9 9 9 10 10 10 11 11 12 12 12 12 12 13 13 13 13 13 13 14 14 14 14 14 14 14 13 13 13 13
9 10 10 10 10 9 9 10 11 10 9 9 9 9 9 8 8 8 8 8 9 9 9 9 10 10 11 11 11 11 12 12 12 12 13 13 13 13 13 13 13 13 13 13 13 13 13 13 13
9 9 9 10 10 9 9 10 10 10 9 9 9 9 8 8 8 8 8 8 8 8 9 9 9 10 10 10 11 11 11 11 11 12 12 12 13 13 13 13 13 13 13 13 13 13 13 13 13
8 8 9 9 9 9 9 9 10 10 9 9 9 8 7 7 7 7 7 7 8 8 8 9 9 9 9 10 10 10 10 11 11 11 12 12 12 12 12 12 12 12 13 13 13 13 12 12 12
8 8 9 9 9 9 9 9 10 9 9 8 8 7 7 6 6 6 7 7 7 7 8 8 8 9 9 9 9 10 10 10 11 11 11 11 11 12 12 12 12 12 12 12 12 12 12 12 12
8 8 9 8 9 9 8 10 10 9 9 8 7 7 6 6 6 6 6 6 6 7 7 7 8 8 8 9 9 9 9 10 10 10 11 11 11 11 11 11 11 12 12 12 12 12 12 12 11
8 9 8 8 8 8 8 9 10 9 9 8 7 7 6 5 5 5 5 5 6 6 6 7 7 7 8 8 9 9 9 9 9 10 10 10 10 10 11 11 11 11 11 11 11 11 11 11 11
8 8 8 8 7 7 8 8 10 9 8 8 7 6 5 5 5 5 5 5 5 6 6 7 7 7 7 8 8 8 8 8 9 9 9 10 10 10 10 10 11 11 11 11 11 11 11 11 11
8 8 8 7 8 8 8 9 10 9 8 7 7 6 5 4 4 4 4 5 5 5 6 6 6 7 7 7 7 8 8 8 8 9 9 9 9 10 10 10 10 10 10 10 10 10 10 10 10
8 8 9 9 9 10 8 8 9 9 8 7 6 5 4 4 4 4 4 4 4 5 5 5 6 6 6 7 7 7 7 7 8 8 9 9 9 9 9 9 10 10 10 10 10 10 10 10 10
7 8 8 9 10 10 8 9 10 8 7 6 5 5 4 4 4 4 4 4 4 4 4 5 5 6 6 6 6 7 7 7 7 8 8 8 8 9 9 9 9 9 9 9 9 9 9 9 9
7 8 7 8 7 8 10 9 9 8 7 6 6 5 4 4 3 3 3 3 3 4 4 4 5 5 5 6 6 6 6 6 7 7 8 8 8 8 8 8 8 8 8 8 9 9 9 9 9
7 7 7 8 8 10 10 10 10 8 7 6 6 5 4 3 3 3 3 3 3 3 4 4 4 5 5 5 5 5 6 6 7 7 7 7 7 7 7 8 8 8 8 8 8 8 8 8 8
7 7 7 8 8 9 10 11 9 8 7 6 5 4 4 3 3 3 3 3 3 3 3 4 4 5 5 5 5 5 6 6 6 6 6 6 7 7 7 7 7 7 7 7 7 8 8 8 8
7 7 7 8 8 8 9 10 8 7 7 6 5 4 3 3 2 3 3 3 3 3 3 3 3 4 4 4 4 5 5 5 5 6 6 6 6 6 6 6 6 7 7 7 7 7 7 7 7
Wind_Speed
2 1 2 4 5 6 10 7 5 5 5 3 4 5 6 6 3 1 4 8 10 6 3 3 4 7 9 12 13 13 15 17 18 18 18 17 17 17 16 16 15 14 14 14 15 15 15 15 15
1 1 4 4 6 9 7 7 9 6 2 2 4 6 6 5 1 3 4 9 9 6 3 1 4 6 8 9 11 13 14 16 18 19 18 18 17 17 17 16 15 15 14 15 14 15 15 15 14
1 0 4 5 7 8 5 4 6 4 1 2 3 4 5 3 1 2 6 8 8 6 4 2 3 4 6 8 9 12 13 14 17 18 19 18 18 17 17 16 16 15 15 15 15 15 15 15 14
3 3 3 6 10 7 3 3 2 4 4 2 3 4 3 1 2 3 7 8 7 6 5 2 1 3 5 7 8 9 12 14 15 18 19 18 18 18 17 17 16 15 15 16 16 15 15 14 14
2 4 6 7 9 5 4 3 2 4 4 3 4 5 5 2 1 4 7 8 7 6 5 3 1 3 5 7 8 9 10 13 14 16 18 18 18 17 17 17 17 16 16 16 16 16 15 14 14
4 4 6 9 9 5 5 5 5 6 6 5 5 7 6 2 3 5 8 8 7 6 6 4 2 3 5 7 8 10 9 10 13 14 16 17 17 17 17 18 18 17 17 16 16 16 15 14 14
5 5 5 6 6 6 4 4 7 7 8 6 4 6 5 4 4 7 9 9 8 6 5 5 4 4 6 7 8 10 11 10 11 13 15 15 17 17 18 18 18 18 17 16 16 15 15 14 13
2 3 5 5 6 5 3 3 3 7 8 5 5 7 6 4 8 10 10 9 8 6 5 5 5 5 6 8 9 10 11 11 11 11 13 15 15 16 18 18 18 18 17 17 16 15 15 14 13
3 5 7 6 5 3 3 4 3 4 7 7 8 10 10 11 12 11 10 9 9 8 6 6 6 6 6 7 8 10 11 12 12 12 12 14 15 16 16 18 17 18 17 17 16 16 15 14 12
5 6 5 3 3 2 3 6 6 6 9 11 11 12 12 12 12 12 12 11 11 10 9 7 7 6 7 7 7 8 10 11 12 12 13 13 13 13 14 16 17 17 17 17 16 15 15 13 11
4 5 3 4 4 5 7 8 8 9 11 12 13 14 13 14 13 13 13 12 12 11 11 9 8 7 7 6 6 6 7 8 11 12 13 12 11 11 12 12 14 15 16 15 15 15 13 12 10
4 5 5 4 5 7 9 8 9 12 14 14 14 16 16 16 15 14 15 14 13 12 12 10 9 8 8 7 6 6 6 6 7 10 13 11 7 7 9 9 11 13 13 12 13 12 13 12 11
6 4 5 7 9 10 12 13 13 15 16 15 15 15 16 16 16 15 14 14 14 13 12 11 10 9 8 7 7 7 7 7 8 9 12 12 8 8 8 8 10 11 12 12 11 11 11 11 11
3 5 7 8 10 8 11 13 11 12 10 11 12 13 13 14 14 14 13 14 13 12 12 11 10 10 9 8 8 7 7 7 8 8 11 13 10 9 8 9 9 10 11 12 11 11 10 9 9
3 5 6 6 6 4 6 9 8 9 9 11 12 12 13 12 12 12 13 13 12 12 11 11 10 9 9 10 10 8 7 7 7 8 11 13 12 10 9 9 9 9 12 12 10 11 10 9 9
3 3 3 2 3 3 5 8 6 6 9 12 12 12 11 11 11 11 11 11 11 11 11 10 9 9 9 9 9 8 7 7 7 8 9 12 13 12 9 8 9 10 10 9 9 9 9 9 9
2 3 4 3 2 3 5 9 10 10 11 12 12 10 10 10 10 10 11 11 10 10 10 10 9 9 9 8 8 8 7 7 7 7 7 9 11 12 9 8 8 10 8 8 9 9 9 9 9
2 3 4 5 3 6 9 12 13 11 10 10 10 9 8 9 10 11 11 11 10 9 8 8 8 8 7 7 6 6 6 6 6 6 7 9 9 11 9 8 9 9 8 9 9 10 9 9 9
3 4 7 7 6 7 9 12 12 10 9 8 8 8 8 10 11 10 10 9 8 7 6 6 6 7 5 6 6 6 7 7 7 7 8 9 9 11 10 9 9 9 9 10 11 9 10 9 7
5 6 7 6 4 6 9 11 9 6 6 7 8 9 10 11 11 11 11 9 8 7 5 5 6 6 6 6 6 6 6 6 7 6 7 8 9 10 9 10 9 10 9 10 10 10 8 7 7
6 6 6 7 9 4 6 5 1 2 4 7 9 9 10 11 12 12 11 10 9 7 5 4 5 6 6 6 6 5 5 6 6 7 6 8 9 10 10 10 9 9 10 10 11 11 11 9 9
4 4 6 7 6 3 4 3 2 4 6 9 11 11 11 11 11 11 11 11 9 7 6 5 5 5 5 5 6 8 7 8 8 6 6 7 8 9 9 9 9 9 9 9 10 11 10 10 9
3 4 6 6 4 4 3 4 3 3 6 10 11 12 12 12 12 11 11 10 8 7 6 4 4 4 4 4 5 7 8 7 6 6 7 6 6 7 8 9 8 9 9 9 10 10 10 9 10
4 4 3 2 2 3 2 3 3 2 5 9 10 12 12 12 12 11 10 9 8 7 5 4 3 3 3 3 4 5 7 7 7 7 6 5 5 6 7 7 8 8 8 9 9 9 10 10 10
2 2 1 1 2 1 0 3 3 3 5 7 9 10 11 12 12 11 10 9 8 7 6 4 2 1 1 2 2 2 4 6 6 6 6 5 4 4 5 6 6 7 7 8 8 8 9 10 10
1 2 2 2 2 2 2 3 2 2 4 5 6 7 9 11 11 11 9 8 8 8 7 5 3 2 2 1 1 1 2 3 3 4 3 3 3 4 5 5 5 6 7 8 7 7 7 7 9
1 1 1 1 2 3 2 2 2 2 4 5 6 8 10 10 11 11 10 9 8 7 7 5 4 3 3 2 2 1 1 2 2 2 2 3 3 3 5 5 5 6 6 7 7 6 7 7 8
1 1 2 2 2 2 3 2 2 4 4 5 6 8 9 10 10 11 10 9 9 8 7 7 6 4 4 4 3 2 3 2 0 1 1 2 3 3 4 4 4 5 6 6 6 6 6 6 6
2 2 1 2 2 2 3 1 1 3 3 4 5 7 8 9 9 9 9 9 9 9 9 8 7 7 6 5 5 5 4 3 2 1 0 1 1 2 3 3 4 5 4 5 6 7 7 7 7
2 2 2 2 2 2 3 2 2 2 2 2 4 6 7 8 8 8 8 9 9 9 9 8 7 7 7 6 6 6 5 4 4 3 2 1 1 1 1 2 3 3 4 4 4 6 6 7 8
Wind_Direction
338 318 198 178 190 216 228 215 207 192 198 218 242 243 243 236 236 99 37 6 353 351 347 170 170 169 169 174 171 173 171 171 170 169 170 170 169 166 163 161 160 157 154 150 145 141 137 133 130
352 192 175 189 215 221 222 213 207 200 191 258 234 237 237 232 311 18 11 356 353 0 9 147 153 163 169 171 175 174 175 175 175 173 174 174 173 170 167 166 163 160 156 151 146 141 139 135 133
133 153 183 193 217 228 211 183 206 195 214 240 226 236 246 248 330 11 4 348 353 5 9 37 136 169 169 171 176 182 180 179 180 178 178 178 176 175 172 169 164 160 155 150 146 142 141 139 138
175 161 186 219 222 226 226 143 162 199 204 228 257 239 234 290 334 356 351 348 351 359 360 12 145 185 184 179 179 184 186 184 184 184 182 181 180 178 174 168 163 160 155 151 148 146 146 145 143
172 183 197 221 228 220 221 223 222 218 219 230 259 262 256 224 296 332 340 342 344 343 343 342 297 221 204 196 188 187 191 190 189 189 188 184 181 180 175 168 165 163 160 157 154 153 152 151 150
168 194 211 224 222 220 226 228 235 240 245 259 268 267 263 245 288 325 331 328 328 325 323 316 294 248 220 209 201 196 190 193 195 194 192 189 185 182 177 171 169 168 166 163 161 160 159 158 158
192 199 223 228 227 226 217 216 234 248 252 258 273 269 258 257 311 323 322 318 316 313 307 299 280 251 226 219 212 204 199 197 199 198 195 192 189 185 180 175 173 173 172 169 166 165 166 165 163
201 199 214 219 225 226 191 210 253 261 265 273 260 255 258 305 324 318 314 310 306 302 299 292 276 259 239 223 216 212 207 203 203 199 193 188 187 187 182 179 177 177 175 172 170 169 170 170 168
191 215 223 217 220 215 197 241 267 276 263 258 253 262 283 304 309 307 304 303 300 296 293 287 276 265 251 236 221 214 209 206 203 201 193 190 194 193 187 188 180 181 180 176 175 174 174 173 171
197 219 225 214 224 245 261 271 285 272 264 263 262 267 279 289 293 292 290 291 292 292 290 282 275 266 255 244 226 218 215 209 209 205 200 201 200 197 192 183 180 183 181 180 180 177 177 184 183
200 224 219 228 241 266 274 277 275 269 267 268 277 285 287 287 285 282 279 278 280 284 285 279 274 264 252 241 234 222 218 212 212 210 205 203 201 196 191 182 183 187 185 187 183 183 189 195 193
205 229 235 244 255 262 270 275 271 258 265 282 285 286 287 286 282 279 277 275 276 276 277 275 268 262 252 242 236 226 220 215 211 211 209 203 198 197 192 189 188 189 191 192 191 195 196 200 199
218 235 246 256 264 265 268 265 270 269 272 279 281 281 280 281 281 277 276 273 270 269 269 267 262 257 252 245 238 231 222 220 214 211 210 205 198 200 198 196 191 191 192 192 195 198 197 200 203
227 249 268 271 265 263 266 270 263 266 279 285 283 283 281 282 283 284 281 274 267 265 266 266 259 253 249 244 238 233 224 220 215 210 210 207 202 200 199 199 196 194 194 195 198 200 199 203 206
244 263 267 253 254 256 277 270 249 270 291 293 291 289 287 287 288 286 286 281 272 266 263 261 260 250 245 243 239 234 222 218 212 210 209 207 204 201 199 199 197 197 196 196 199 201 202 205 208
215 239 254 228 252 245 266 276 288 302 303 302 300 296 294 295 296 297 293 287 280 271 263 255 254 250 243 239 235 229 222 216 214 211 208 207 204 202 200 201 199 198 196 197 199 200 201 204 209
198 247 268 281 243 264 267 282 301 310 307 304 306 305 302 303 308 311 307 294 287 277 264 252 249 247 241 237 232 226 220 220 217 211 208 206 203 203 202 202 200 197 197 200 200 200 202 205 209
217 259 271 279 288 284 279 283 300 310 314 310 312 314 314 317 318 319 315 305 290 278 262 250 248 243 235 231 225 221 217 219 218 214 206 205 203 202 203 203 205 199 200 202 203 203 204 209 209
247 265 276 281 295 293 284 291 302 314 322 325 327 329 327 325 325 326 320 314 304 293 267 251 247 242 234 224 215 214 216 215 217 214 210 206 206 204 205 207 205 205 205 206 206 205 204 207 204
241 261 275 292 298 295 293 296 301 316 330 341 342 341 336 332 331 330 326 324 316 303 285 266 253 247 238 226 215 215 217 217 218 213 213 210 211 209 207 208 207 209 209 208 208 204 203 202 197
250 249 272 298 313 288 292 291 300 357 3 1 359 350 342 337 333 330 330 330 324 316 304 284 269 253 244 229 213 210 215 217 219 212 215 213 214 212 210 210 209 211 212 211 208 208 207 203 199
265 256 270 288 300 296 313 292 290 339 347 355 353 351 348 342 338 334 333 329 325 320 314 300 277 261 247 233 217 209 215 220 222 217 217 214 216 215 212 213 213 215 214 214 213 212 213 208 203
269 291 277 277 268 275 259 258 281 342 341 344 346 349 348 345 342 338 335 332 328 325 319 309 287 267 254 242 229 213 218 224 222 214 215 218 218 219 215 213 214 218 220 218 216 213 213 215 214
270 279 261 229 230 252 243 242 280 340 334 332 338 344 345 346 346 345 343 344 343 340 331 316 283 267 255 244 239 217 217 221 217 213 212 219 221 219 218 216 216 221 225 222 219 217 215 217 219
269 290 270 227 229 261 174 252 274 343 336 327 331 339 345 349 351 353 353 353 352 350 346 338 333 314 282 255 244 220 227 228 220 217 215 219 222 223 219 218 217 219 226 224 221 222 223 221 219
277 290 321 304 303 312 259 260 303 3 337 337 341 346 350 356 358 0 359 358 358 357 355 3 17 27 24 6 323 268 258 238 221 214 211 220 224 226 222 218 219 220 224 223 218 220 224 224 222
218 214 329 271 283 273 267 281 280 331 339 344 347 353 355 356 358 1 2 4 1 358 358 7 26 31 24 20 6 342 318 277 229 219 216 229 234 228 226 220 219 223 228 227 220 221 224 226 225
265 218 209 244 289 294 287 275 300 306 316 331 340 347 351 354 357 359 2 6 9 9 10 19 29 37 28 21 16 15 5 333 224 191 227 244 243 230 228 228 223 226 231 227 223 223 225 228 230
181 198 228 242 272 282 297 309 18 290 298 313 330 340 344 349 353 359 4 7 11 15 16 20 26 26 21 24 24 25 15 6 45 53 9 288 276 234 224 230 231 227 233 232 224 224 222 228 231
251 242 229 269 259 248 271 281 47 315 296 312 325 334 342 348 353 2 8 10 11 14 14 15 20 27 25 28 30 24 17 27 45 47 26 344 312 269 234 229 240 237 237 236 233 233 231 231 235
Height
1512 1513 1516 1520 1520 1516 1507 1506 1509 1512 1513 1514 1515 1515 1512 1511 1511 1516 1518 1513 1512 1511 1511 1512 1514 1515 1517 1519 1521 1523 1524 1526 1527 1529 1530 1532 1533 1534 1535 1536 1537 1538 1539 1539 1540 1541 1542 1542 1543
1512 1515 1519 1520 1514 1508 1504 1505 1509 1510 1514 1516 1516 1515 1514 1513 1515 1516 1514 1512 1512 1511 1511 1512 1513 1515 1517 1518 1520 1522 1524 1526 1527 1529 1530 1532 1533 1534 1535 1536 1537 1538 1539 1540 1541 1542 1543 1543 1544
1512 1515 1519 1515 1510 1501 1500 1507 1509 1513 1515 1516 1515 1515 1514 1514 1515 1515 1514 1512 1512 1512 1511 1512 1513 1514 1516 1518 1519 1521 1523 1525 1527 1528 1530 1531 1533 1534 1535 1536 1537 1539 1540 1541 1542 1542 1543 1544 1545
1514 1517 1518 1514 1507 1506 1506 1510 1512 1513 1515 1516 1515 1514 1514 1515 1514 1514 1513 1512 1512 1512 1512 1512 1513 1514 1515 1517 1518 1520 1522 1524 1526 1528 1529 1531 1532 1533 1535 1536 1537 1539 1540 1541 1542 1543 1544 1545 1546
1514 1515 1513 1509 1506 1507 1511 1513 1514 1512 1513 1514 1515 1513 1513 1514 1512 1512 1512 1511 1511 1511 1511 1511 1512 1513 1514 1516 1517 1519 1521 1523 1525 1526 1528 1530 1531 1533 1534 1536 1537 1539 1540 1541 1542 1543 1544 1545 1546
1515 1513 1508 1503 1503 1509 1512 1514 1514 1513 1513 1514 1515 1513 1511 1512 1511 1511 1510 1510 1510 1510 1510 1511 1511 1512 1513 1514 1516 1517 1519 1521 1523 1525 1527 1529 1530 1532 1534 1535 1537 1538 1539 1541 1542 1543 1544 1545 1546
1513 1510 1504 1502 1504 1507 1511 1513 1513 1512 1512 1513 1514 1512 1510 1511 1510 1509 1508 1508 1508 1508 1509 1509 1510 1510 1512 1513 1514 1516 1518 1519 1521 1523 1525 1527 1529 1531 1533 1534 1536 1537 1539 1540 1541 1543 1544 1545 1546
1512 1511 1507 1506 1505 1506 1511 1512 1512 1512 1511 1513 1513 1510 1509 1510 1508 1507 1506 1506 1506 1506 1506 1507 1508 1508 1509 1510 1512 1513 1515 1517 1519 1522 1524 1526 1527 1529 1531 1533 1535 1536 1538 1539 1541 1542 1544 1545 1546
1512 1512 1504 1504 1506 1506 1511 1511 1512 1512 1511 1511 1510 1509 1508 1507 1506 1505 1504 1503 1503 1503 1503 1504 1504 1505 1506 1508 1509 1510 1513 1515 1517 1519 1521 1523 1526 1527 1529 1531 1533 1535 1537 1538 1540 1541 1543 1544 1545
1512 1507 1504 1508 1509 1509 1510 1511 1511 1510 1508 1507 1507 1506 1506 1504 1503 1502 1501 1500 1499 1499 1500 1500 1501 1502 1503 1504 1505 1507 1509 1511 1514 1516 1518 1521 1523 1525 1527 1529 1531 1533 1535 1537 1538 1540 1542 1543 1544
1510 1506 1508 1510 1511 1511 1510 1510 1510 1508 1504 1504 1503 1502 1502 1501 1499 1498 1497 1496 1495 1495 1495 1496 1497 1498 1499 1500 1502 1503 1505 1507 1510 1512 1515 1517 1519 1522 1524 1526 1528 1531 1533 1535 1536 1538 1540 1541 1543
1510 1509 1510 1510 1511 1510 1509 1508 1507 1505 1502 1501 1500 1499 1497 1496 1495 1494 1492 1491 1490 1490 1490 1491 1492 1493 1495 1496 1498 1499 1501 1502 1505 1508 1511 1513 1515 1518 1520 1522 1525 1527 1529 1532 1534 1536 1537 1539 1540
1508 1508 1509 1509 1509 1508 1507 1505 1504 1500 1498 1497 1496 1494 1493 1491 1490 1488 1487 1486 1485 1484 1485 1485 1486 1488 1489 1491 1493 1495 1496 1498 1501 1503 1506 1509 1511 1513 1516 1519 1521 1524 1526 1528 1531 1533 1535 1536 1538
1507 1508 1507 1507 1506 1505 1504 1501 1501 1494 1494 1493 1491 1489 1487 1486 1484 1483 1481 1480 1479 1479 1479 1480 1480 1482 1484 1486 1488 1490 1491 1493 1496 1498 1501 1504 1507 1509 1512 1515 1517 1519 1522 1524 1527 1529 1531 1533 1535
1508 1507 1504 1503 1503 1502 1502 1495 1493 1491 1491 1489 1487 1484 1483 1481 1479 1478 1476 1474 1473 1473 1473 1474 1475 1476 1478 1480 1483 1484 1486 1489 1490 1493 1496 1499 1502 1505 1507 1510 1512 1515 1518 1520 1523 1525 1527 1529 1531
1506 1503 1499 1499 1500 1500 1502 1489 1488 1488 1487 1484 1482 1480 1478 1476 1474 1473 1471 1469 1467 1467 1467 1468 1469 1471 1473 1475 1477 1479 1481 1483 1485 1488 1491 1494 1497 1500 1502 1505 1507 1510 1513 1516 1518 1521 1523 1525 1526
1501 1499 1497 1497 1498 1498 1497 1488 1486 1486 1484 1480 1477 1475 1474 1472 1470 1468 1466 1464 1462 1461 1461 1461 1463 1465 1467 1469 1471 1474 1476 1478 1480 1483 1485 1488 1491 1494 1497 1500 1503 1505 1508 1511 1513 1516 1518 1520 1522
1499 1497 1497 1495 1495 1496 1493 1487 1484 1482 1481 1477 1474 1472 1471 1468 1467 1464 1462 1459 1457 1456 1455 1456 1457 1459 1461 1463 1466 1468 1470 1472 1475 1477 1480 1483 1486 1489 1492 1495 1498 1500 1503 1505 1508 1510 1513 1515 1517
1501 1500 1497 1494 1495 1495 1488 1484 1481 1480 1478 1475 1473 1471 1469 1466 1464 1461 1458 1455 1453 1451 1450 1451 1452 1453 1456 1458 1459 1462 1464 1466 1469 1472 1475 1477 1480 1484 1487 1490 1492 1495 1498 1500 1503 1505 1508 1510 1513
1501 1500 1495 1493 1494 1493 1487 1482 1478 1477 1476 1475 1472 1470 1467 1464 1461 1457 1454 1451 1449 1447 1446 1446 1447 1448 1450 1452 1454 1457 1459 1461 1464 1466 1469 1472 1475 1478 1481 1484 1487 1490 1492 1495 1497 1500 1502 1504 1507
1498 1497 1494 1494 1492 1490 1487 1477 1475 1475 1475 1474 1473 1470 1467 1464 1459 1455 1451 1448 1446 1444 1443 1442 1443 1444 1445 1448 1450 1452 1454 1457 1459 1461 1464 1467 1470 1473 1476 1479 1482 1484 1487 1489 1491 1494 1496 1498 1501
1494 1495 1495 1494 1493 1487 1488 1479 1472 1474 1474 1473 1472 1469 1466 1462 1458 1453 1449 1446 1443 1441 1440 1439 1440 1440 1441 1443 1445 1447 1450 1452 1454 1456 1459 1462 1465 1467 1471 1473 1476 1479 1481 1484 1486 1489 1491 1493 1494
1495 1495 1494 1493 1492 1491 1485 1483 1471 1474 1473 1473 1471 1469 1466 1461 1456 1451 1447 1443 1441 1438 1437 1436 1436 1437 1437 1439 1441 1443 1446 1449 1450 1453 1455 1457 1460 1462 1465 1467 1470 1473 1476 1478 1481 1483 1485 1487 1489
1497 1495 1493 1492 1491 1486 1483 1481 1470 1472 1475 1473 1471 1469 1465 1460 1455 1450 1445 1442 1439 1437 1435 1434 1434 1434 1435 1437 1438 1440 1442 1444 1446 1447 1449 1452 1455 1457 1459 1462 1465 1468 1470 1472 1475 1477 1479 1481 1483
1496 1493 1486 1482 1480 1475 1483 1480 1473 1474 1476 1475 1472 1468 1464 1459 1454 1449 1445 1442 1439 1437 1434 1433 1432 1432 1433 1435 1436 1437 1439 1440 1441 1443 1445 1448 1450 1452 1454 1457 1460 1462 1465 1467 1469 1471 1473 1475 1476
1495 1494 1489 1482 1475 1473 1479 1475 1471 1475 1476 1475 1473 1469 1465 1460 1455 1451 1446 1443 1440 1437 1435 1433 1431 1431 1432 1433 1433 1434 1435 1437 1437 1439 1441 1443 1445 1448 1450 1452 1454 1457 1459 1461 1462 1465 1466 1468 1469
1494 1493 1494 1492 1490 1483 1472 1473 1472 1475 1475 1474 1472 1469 1465 1461 1457 1452 1448 1445 1442 1439 1436 1434 1432 1432 1432 1432 1432 1432 1432 1433 1434 1436 1438 1440 1441 1443 1445 1447 1449 1451 1453 1455 1457 1458 1460 1462 1463
1496 1494 1494 1491 1485 1474 1468 1468 1469 1472 1474 1474 1472 1469 1466 1463 1458 1454 1449 1446 1442 1439 1437 1435 1433 1432 1432 1431 1431 1431 1431 1430 1431 1433 1434 1436 1437 1439 1440 1442 1444 1446 1448 1449 1451 1453 1454 1456 1457
1495 1495 1493 1490 1488 1480 1471 1467 1470 1473 1473 1473 1472 1471 1468 1464 1460 1455 1451 1447 1444 1441 1438 1436 1434 1433 1432 1431 1430 1429 1429 1429 1429 1430 1432 1433 1434 1435 1436 1438 1439 1441 1443 1444 1446 1447 1448 1450 1451
1494 1492 1492 1488 1487 1486 1478 1473 1473 1474 1474 1474 1473 1471 1469 1465 1461 1457 1453 1450 1446 1443 1440 1438 1435 1434 1432 1431 1430 1429 1429 1428 1427 1428 1429 1429 1430 1431 1432 1433 1435 1436 1438 1439 1440 1441 1443 1444 1444